Temperature
11 11 11 11 11 11 11 11 11 11 11 11 11 11 12 11 11 11 11 12 12 11 11 11 11 11 11 11 10 11 11 11 10 10 10 10 10 10 10 10 10 10 10
10 10 10 11 11 11 11 11 11 11 11 11 11 11 11 11 11 11 11 11 11 11 11 11 11 11 11 10 10 10 10 10 10 10 10 10 10 10 10 10 10 10 9
10 10 10 10 10 10 10 10 10 10 10 10 10 11 11 11 11 11 11 11 11 11 11 11 11 11 11 10 10 10 10 10 10 10 10 10 10 10 10 9 9 9 9
9 9 9 10 10 10 10 10 10 10 10 10 10 10 10 10 10 10 10 10 10 11 11 11 11 10 10 10 10 10 10 10 10 10 10 10 10 9 9 9 9 9 9
9 9 9 9 9 9 9 9 9 9 9 9 10 10 10 10 10 10 10 10 10 10 10 10 10 10 10 10 10 10 9 10 9 9 9 9 9 9 9 9 9 8 8
8 8 9 9 9 9 9 9 9 9 9 9 9 9 9 9 10 9 9 10 10 10 10 10 10 10 10 9 9 9 9 9 9 9 9 9 9 9 9 8 8 8 8
8 8 8 8 8 8 8 8 8 8 8 9 9 8 9 9 9 9 9 9 9 9 9 9 9 9 9 9 9 9 9 9 9 9 9 9 8 8 8 8 8 8 8
7 7 8 8 8 8 8 8 8 8 8 8 8 7 7 8 8 9 8 9 9 9 9 9 9 9 9 9 9 9 9 9 8 8 8 8 8 8 8 8 8 8 7
7 7 7 7 7 7 7 8 7 8 7 7 7 7 7 8 7 8 8 8 8 8 8 8 8 8 8 8 9 9 9 8 8 8 8 8 8 8 8 8 8 7 7
6 6 7 7 7 7 7 7 7 7 7 7 7 7 7 7 7 6 7 7 7 8 8 8 8 8 8 8 8 8 8 8 8 8 8 7 7 7 7 7 7 7 7
6 6 6 6 6 7 7 7 7 7 6 6 6 6 7 7 7 6 6 7 7 7 7 7 7 7 7 8 8 8 8 8 7 7 7 7 7 7 7 7 7 7 6
5 6 6 6 6 6 6 6 6 6 6 6 6 6 6 6 6 6 6 6 6 6 6 7 7 7 7 7 7 7 7 7 7 7 7 7 7 7 7 6 6 6 6
5 5 5 6 6 6 6 6 6 6 6 6 6 6 6 6 6 6 6 5 5 6 6 6 6 6 6 6 7 7 7 7 7 7 7 6 7 6 6 6 6 6 6
5 5 5 5 5 5 5 5 5 5 6 5 5 5 5 5 5 5 5 5 5 5 5 5 6 5 6 6 6 6 6 6 6 6 6 6 6 6 6 6 6 6 5
4 4 5 5 5 5 5 5 5 5 5 5 5 5 5 5 5 5 5 5 4 4 4 5 5 5 5 5 5 5 5 5 6 6 6 6 6 5 5 5 5 5 5
4 4 4 4 4 5 5 5 4 4 5 4 4 4 4 4 4 4 4 4 4 4 3 4 4 4 4 5 5 5 5 5 5 5 5 5 5 5 5 5 5 5 5
4 4 4 4 4 4 4 4 4 4 4 4 4 4 4 4 4 4 4 4 4 4 3 4 4 4 4 4 4 4 4 4 4 5 5 5 5 5 5 5 5 5 4
4 3 3 4 4 4 4 4 4 4 4 3 3 3 3 3 3 3 3 4 4 3 3 3 4 4 4 4 4 4 4 4 4 4 4 4 4 4 4 4 4 4 4
3 3 3 3 3 3 3 3 3 3 3 3 3 3 3 3 3 3 3 3 3 3 3 3 3 3 3 3 3 3 3 3 4 4 4 4 4 4 4 4 4 4 3
3 3 3 3 3 3 3 3 3 3 3 3 2 2 2 2 2 2 2 2 2 2 2 3 3 3 3 3 3 3 3 3 3 3 3 3 3 3 4 3 3 3 3
2 2 3 3 3 3 3 2 2 2 2 2 2 2 2 2 2 2 2 2 2 2 2 2 2 2 2 2 2 2 2 2 3 3 3 3 3 3 3 3 3 3 3
2 2 2 2 2 2 2 2 2 2 2 1 1 1 1 1 1 1 1 1 1 2 2 2 2 2 2 1 1 1 1 1 2 2 2 2 2 2 2 2 3 3 2
1 1 2 2 2 2 2 2 1 1 1 1 1 1 0 0 0 1 1 1 1 1 1 1 1 1 1 1 1 1 1 1 1 1 1 2 2 2 2 2 2 2 2
1 1 1 1 1 1 1 1 1 1 1 0 0 0 0 -0 -0 -0 0 0 0 1 1 1 1 1 1 1 1 0 0 0 1 1 1 1 1 1 2 2 2 2 2
1 1 0 1 1 1 1 0 0 0 -0 -0 -0 -0 -0 -1 -1 -0 -0 -0 -0 -0 0 0 0 0 0 0 0 0 0 -0 0 0 0 0 0 1 1 1 1 1 1
0 0 0 0 0 0 0 -0 -0 -0 -0 -1 -1 -1 -1 -1 -1 -1 -1 -1 -1 -1 -0 -0 0 0 0 0 0 -0 -0 -1 -1 -1 -1 -1 -0 -0 -0 1 1 1 1
Wind_Speed
1 1 0 1 1 1 1 2 2 2 2 2 2 2 2 3 3 3 2 3 3 3 4 3 3 3 3 3 4 4 4 4 4 4 5 5 6 6 6 7 7 7 7
1 1 1 1 1 1 1 2 2 2 2 2 2 2 3 3 3 3 3 3 4 4 4 4 4 3 4 4 5 5 5 5 5 5 6 6 6 6 6 7 8 8 8
1 1 1 1 1 2 2 2 2 2 2 2 2 3 2 2 3 3 3 3 4 4 4 4 4 4 4 5 5 5 5 5 5 5 6 6 6 6 7 8 8 8 9
2 1 1 1 2 2 2 2 2 2 2 2 2 2 3 2 3 3 3 3 3 3 4 4 4 5 5 5 6 6 5 5 5 6 6 6 6 7 7 8 8 8 8
2 1 1 1 2 2 2 2 2 2 2 2 2 3 3 3 3 3 3 3 2 3 4 3 3 4 5 6 6 7 6 6 6 6 6 6 7 7 7 8 8 8 9
3 2 1 2 1 1 2 2 3 3 3 2 2 3 3 3 3 3 3 2 2 2 3 4 4 4 4 5 6 6 7 6 6 6 6 7 7 7 7 8 8 8 9
3 2 1 1 2 2 2 2 3 3 2 1 2 3 3 4 3 3 3 3 2 2 2 3 3 4 4 4 4 6 7 7 7 7 7 7 7 7 7 8 8 9 9
2 2 2 2 2 2 2 2 3 3 2 2 2 2 2 3 2 3 3 3 2 1 2 3 3 3 4 4 3 5 7 8 8 7 7 7 8 8 8 8 8 9 9
2 2 3 3 3 3 3 3 3 3 2 2 2 2 2 2 1 2 3 3 2 2 2 2 3 3 4 4 4 4 6 7 8 8 8 8 8 9 9 9 9 9 10
3 2 3 3 3 3 3 3 3 3 3 3 3 2 2 1 1 1 2 2 2 2 2 2 2 3 3 3 4 4 5 7 8 8 8 9 9 9 10 10 10 10 10
2 3 3 3 3 2 3 3 3 3 3 3 3 2 2 2 2 2 3 2 2 2 2 2 2 2 3 3 4 5 6 6 7 9 9 9 9 10 10 10 10 10 10
2 3 3 3 3 2 3 3 4 4 3 3 3 3 2 2 2 2 3 3 3 2 2 2 1 2 3 4 4 6 6 6 7 8 9 10 9 10 10 10 10 10 10
3 3 3 3 3 3 3 3 4 4 4 4 3 3 2 2 2 2 2 3 3 3 2 2 1 2 3 4 5 8 6 6 8 9 9 10 10 10 10 10 10 10 10
3 3 4 4 4 4 4 4 4 4 3 3 3 3 2 2 2 2 2 2 3 3 3 3 2 2 3 5 6 8 6 7 8 9 9 9 9 10 10 10 10 10 10
3 4 4 4 4 4 4 4 3 4 4 4 3 3 2 2 2 2 2 2 3 3 3 2 2 3 4 5 6 7 7 8 9 8 9 9 9 10 10 10 10 9 9
3 4 4 4 4 3 4 4 4 4 4 3 3 3 2 1 1 2 2 2 3 3 3 3 3 4 5 5 6 7 7 9 8 8 8 10 10 10 10 10 9 9 8
3 3 4 4 3 3 3 3 4 3 3 3 2 2 2 2 1 2 2 2 3 3 4 4 3 4 5 5 6 6 7 7 6 8 9 9 10 9 10 9 8 8 8
3 3 4 3 3 3 3 3 3 3 3 3 2 2 2 2 2 2 2 2 3 3 4 4 4 4 5 5 5 6 6 6 6 8 9 9 10 9 9 8 8 8 8
2 3 3 3 3 3 3 3 3 3 2 2 2 2 2 2 2 2 2 2 2 2 3 3 4 4 4 4 5 5 5 5 6 7 8 9 9 9 8 8 8 8 8
2 2 2 3 3 2 2 3 2 2 2 1 1 1 2 2 2 2 2 2 2 2 2 2 3 3 4 4 4 5 5 5 6 6 7 8 9 8 7 7 7 7 8
1 2 2 2 2 2 2 3 2 2 2 2 1 1 1 1 2 2 2 2 2 2 2 2 2 3 3 4 4 4 6 6 6 4 6 6 6 6 5 6 6 8 8
1 1 1 1 1 1 2 3 2 2 2 2 1 0 0 0 1 1 2 3 2 2 2 2 3 3 4 4 4 4 5 5 5 4 6 7 6 5 5 5 7 8 8
0 1 1 0 0 1 2 2 2 2 2 2 1 1 0 0 1 1 1 2 2 3 3 3 4 4 4 4 5 5 5 6 6 6 6 6 5 5 5 6 8 8 8
0 1 1 1 0 0 1 1 1 2 2 1 1 0 0 1 1 1 2 2 3 3 3 3 3 4 4 4 4 5 5 6 6 4 5 4 5 5 6 6 6 7 8
0 0 1 1 1 1 1 1 1 1 2 1 0 0 0 0 1 2 2 2 2 2 3 3 4 4 5 5 5 3 3 4 5 4 3 3 4 6 6 4 5 7 8
0 1 1 1 1 1 2 2 2 1 1 1 1 1 0 1 1 2 1 1 2 3 3 3 2 3 3 3 3 3 3 4 4 3 3 3 4 4 4 4 5 7 7
Wind_Direction
265 287 302 307 277 303 277 280 271 263 251 252 249 251 258 257 249 242 215 179 198 215 222 223 237 254 273 282 289 296 296 292 295 308 310 311 314 314 315 313 311 308 307
262 274 275 282 283 279 275 269 280 272 251 255 261 254 255 250 245 242 238 208 194 209 223 231 239 254 270 283 290 292 293 292 296 301 303 300 304 308 309 307 306 305 305
260 258 268 270 292 275 255 261 266 274 256 253 260 257 247 249 249 245 245 240 221 205 218 238 249 259 269 281 289 296 291 293 297 301 301 300 301 302 302 302 304 302 302
267 247 264 273 294 275 252 247 247 261 256 256 266 264 239 232 247 250 246 241 243 237 222 231 251 264 273 281 289 292 292 290 296 299 299 300 297 297 298 299 299 300 300
282 251 256 277 284 269 251 247 251 258 256 256 266 266 243 232 233 248 247 242 250 254 249 230 239 262 276 284 291 293 291 290 293 297 299 296 294 296 298 297 296 297 298
291 269 258 266 266 252 251 253 253 265 255 248 262 269 252 234 224 233 248 244 248 257 260 255 250 252 263 281 297 301 296 294 298 299 299 298 297 294 296 294 292 294 295
291 263 262 257 259 247 247 250 247 252 259 254 258 270 245 222 220 231 253 256 242 249 266 266 266 269 261 261 288 300 300 298 298 298 299 299 298 297 296 295 293 294 296
296 261 249 246 244 246 241 244 245 247 257 252 259 256 241 214 210 240 238 238 245 238 263 288 280 274 276 272 285 301 303 299 298 299 300 300 299 298 299 300 298 296 297
280 270 253 246 238 237 239 243 246 246 250 252 253 252 242 228 262 221 234 226 241 258 258 281 290 293 284 284 290 298 308 304 298 299 299 298 298 296 299 300 301 299 296
284 271 257 247 240 238 240 240 249 254 249 248 254 256 263 254 226 246 236 229 255 273 275 282 295 302 293 287 297 312 311 309 304 301 299 296 297 295 299 304 305 306 303
276 271 256 246 242 242 243 240 245 249 246 248 251 252 239 230 229 243 260 261 265 267 283 282 291 313 313 306 303 316 319 310 307 307 302 299 297 299 302 304 305 306 306
257 264 259 245 239 243 243 240 242 242 247 245 242 240 231 211 211 232 254 266 273 281 292 288 283 309 320 316 314 324 324 321 316 314 310 305 304 303 305 304 305 305 304
250 255 253 245 239 240 239 236 237 240 246 244 242 243 246 245 239 247 252 266 279 290 289 287 301 318 323 320 323 327 315 317 320 319 314 311 310 307 306 305 304 303 302
252 254 247 244 239 236 232 229 234 235 240 240 248 250 253 259 251 234 248 250 271 278 273 282 301 315 327 321 324 321 312 313 319 319 315 312 312 310 308 306 304 304 304
247 248 245 239 234 233 234 230 232 232 234 229 232 232 236 248 252 247 247 249 259 267 273 285 298 308 322 319 320 316 315 319 315 314 313 311 308 308 308 306 305 303 303
240 246 245 234 228 228 231 230 234 233 233 221 221 222 232 242 250 243 241 256 264 260 270 288 298 303 313 314 314 317 318 316 311 312 314 314 309 307 308 307 303 303 303
239 241 238 226 227 229 230 226 231 233 226 214 214 219 232 243 238 249 254 254 259 263 270 291 300 303 306 312 319 324 324 321 321 315 314 318 314 309 308 309 308 306 307
245 239 229 218 219 225 228 225 225 225 213 205 219 227 231 236 246 251 260 261 268 272 272 282 297 304 305 311 314 317 326 326 323 322 317 318 318 311 309 311 314 313 310
241 236 221 217 219 220 219 220 219 219 209 205 220 230 233 237 249 259 266 267 277 279 274 267 287 306 309 316 319 321 326 327 329 326 325 320 321 317 312 312 313 315 313
235 228 226 217 217 218 212 215 219 203 185 187 216 235 241 242 249 266 277 274 285 295 280 269 282 305 313 318 320 323 325 328 327 328 333 327 317 311 315 319 320 319 318
248 236 226 222 215 209 210 215 204 187 178 170 175 209 261 301 312 295 296 302 299 296 293 286 287 303 312 319 319 321 319 322 323 327 327 326 322 319 321 324 329 334 329
279 250 227 210 211 208 203 203 198 184 178 170 176 189 287 312 11 5 337 330 321 299 293 282 287 289 301 308 313 313 316 319 318 332 324 318 320 319 327 332 334 332 331
325 310 312 320 246 200 185 181 181 185 174 169 170 183 219 333 320 319 343 339 332 321 297 283 274 284 293 299 300 302 306 309 305 313 316 307 319 316 324 322 327 330 331
266 297 324 350 27 139 164 163 149 166 152 141 145 199 246 341 341 339 334 340 335 332 317 294 284 293 299 303 298 295 300 304 301 306 313 298 317 318 319 316 326 332 330
251 311 308 357 14 78 78 101 88 131 129 117 79 33 16 347 7 334 329 331 333 343 355 337 322 315 314 315 314 302 301 306 309 314 331 310 316 320 312 307 325 326 323
108 36 23 359 3 51 59 63 69 113 113 94 79 70 82 5 355 346 332 316 320 326 330 335 339 343 332 323 318 296 286 288 302 302 336 328 316 328 317 314 324 327 324
Height
1509 1509 1509 1509 1509 1509 1510 1509 1509 1509 1509 1510 1510 1510 1511 1511 1512 1512 1512 1512 1513 1513 1513 1513 1513 1513 1512 1512 1511 1510 1509 1508 1507 1505 1504 1503 1502 1500 1499 1498 1497 1496 1494
1507 1507 1507 1507 1507 1507 1507 1507 1507 1507 1507 1507 1507 1507 1508 1508 1509 1509 1510 1510 1510 1510 1510 1511 1511 1510 1510 1509 1509 1508 1507 1506 1504 1503 1502 1501 1499 1498 1497 1496 1494 1493 1492
1504 1504 1504 1504 1504 1505 1505 1505 1505 1505 1505 1505 1505 1504 1505 1505 1506 1507 1507 1507 1507 1507 1508 1508 1508 1507 1507 1507 1506 1505 1504 1503 1502 1501 1499 1498 1497 1495 1494 1493 1492 1490 1489
1502 1502 1502 1502 1502 1502 1502 1502 1503 1503 1502 1502 1502 1501 1502 1502 1503 1503 1504 1504 1504 1504 1505 1505 1505 1505 1504 1504 1503 1502 1501 1500 1499 1498 1497 1496 1494 1493 1491 1490 1489 1487 1486
1499 1499 1499 1499 1499 1499 1500 1500 1500 1500 1500 1499 1499 1499 1499 1499 1500 1500 1501 1501 1501 1501 1501 1501 1502 1502 1501 1501 1500 1499 1498 1497 1496 1495 1494 1493 1491 1490 1489 1487 1486 1485 1483
1496 1496 1496 1497 1497 1497 1497 1497 1497 1497 1497 1497 1496 1496 1496 1496 1497 1497 1497 1497 1498 1498 1498 1498 1499 1498 1498 1497 1497 1496 1495 1494 1493 1492 1491 1490 1488 1487 1486 1484 1483 1482 1481
1494 1494 1494 1494 1494 1494 1494 1494 1494 1495 1494 1494 1494 1493 1493 1493 1493 1494 1494 1494 1495 1495 1495 1495 1495 1495 1494 1494 1493 1492 1492 1491 1490 1489 1488 1487 1485 1484 1483 1481 1480 1479 1477
1491 1491 1491 1491 1491 1491 1491 1491 1492 1492 1492 1492 1491 1491 1491 1492 1490 1490 1490 1491 1491 1491 1491 1491 1492 1491 1491 1490 1489 1489 1489 1488 1487 1486 1485 1483 1482 1481 1479 1478 1477 1476 1474
1488 1488 1488 1488 1488 1488 1488 1488 1489 1489 1489 1489 1489 1489 1489 1488 1488 1488 1488 1488 1488 1488 1488 1488 1488 1488 1488 1487 1486 1486 1485 1484 1483 1482 1481 1480 1479 1478 1476 1475 1473 1472 1470
1485 1485 1485 1485 1485 1485 1485 1485 1486 1486 1487 1486 1486 1486 1486 1485 1486 1486 1486 1486 1486 1485 1486 1485 1485 1484 1484 1484 1483 1482 1482 1481 1480 1479 1478 1477 1475 1474 1473 1471 1470 1468 1467
1481 1482 1482 1482 1481 1482 1482 1482 1483 1483 1484 1484 1484 1483 1483 1483 1483 1484 1483 1483 1483 1484 1483 1483 1482 1482 1481 1480 1480 1479 1478 1477 1476 1475 1474 1473 1472 1470 1469 1467 1466 1464 1463
1478 1478 1478 1478 1478 1478 1479 1479 1480 1480 1481 1481 1481 1481 1480 1480 1481 1481 1481 1480 1480 1480 1480 1480 1480 1479 1478 1477 1476 1476 1475 1474 1473 1471 1470 1469 1468 1466 1465 1463 1462 1460 1459
1474 1475 1475 1475 1475 1475 1476 1476 1476 1477 1477 1477 1478 1478 1478 1478 1478 1479 1479 1478 1478 1477 1478 1477 1477 1476 1475 1474 1473 1472 1471 1470 1469 1467 1466 1465 1463 1462 1461 1459 1458 1456 1455
1471 1471 1472 1471 1472 1472 1473 1473 1473 1473 1474 1475 1475 1475 1475 1475 1476 1476 1477 1477 1476 1475 1475 1475 1474 1473 1472 1471 1470 1469 1468 1466 1465 1463 1462 1461 1459 1458 1457 1455 1454 1452 1451
1468 1468 1468 1468 1469 1469 1470 1470 1470 1470 1471 1472 1472 1472 1472 1473 1473 1473 1474 1475 1475 1473 1473 1472 1471 1470 1469 1468 1466 1465 1464 1462 1461 1459 1458 1456 1455 1454 1453 1451 1450 1448 1447
1464 1465 1465 1465 1465 1465 1466 1466 1467 1467 1468 1469 1469 1469 1470 1470 1470 1471 1471 1472 1471 1471 1470 1468 1468 1467 1466 1464 1463 1461 1460 1458 1457 1455 1454 1452 1451 1450 1449 1447 1446 1444 1443
1461 1461 1461 1461 1461 1462 1462 1463 1463 1464 1465 1465 1466 1466 1467 1467 1468 1468 1468 1468 1468 1468 1467 1465 1465 1464 1463 1461 1460 1458 1456 1455 1453 1452 1450 1449 1447 1446 1445 1443 1442 1440 1439
1458 1458 1458 1458 1458 1459 1459 1459 1460 1461 1461 1462 1463 1464 1464 1465 1465 1465 1465 1465 1465 1465 1464 1462 1461 1460 1460 1458 1457 1455 1453 1452 1450 1448 1447 1445 1444 1442 1441 1439 1438 1437 1435
1455 1455 1455 1455 1455 1456 1456 1456 1457 1458 1458 1459 1460 1461 1461 1462 1462 1462 1462 1462 1462 1462 1461 1460 1458 1457 1456 1456 1454 1452 1451 1449 1447 1445 1443 1442 1440 1438 1437 1436 1434 1433 1431
1452 1452 1453 1453 1453 1453 1453 1454 1454 1455 1456 1457 1458 1458 1459 1459 1459 1459 1459 1459 1459 1459 1459 1458 1456 1455 1454 1453 1451 1449 1447 1446 1444 1442 1440 1438 1437 1435 1434 1432 1431 1429 1428
1450 1450 1450 1450 1450 1450 1450 1450 1452 1453 1453 1454 1455 1456 1456 1456 1456 1457 1457 1456 1457 1456 1456 1455 1453 1452 1451 1450 1448 1447 1445 1443 1441 1439 1437 1435 1434 1432 1431 1429 1428 1426 1425
1447 1448 1447 1447 1447 1447 1448 1449 1449 1450 1451 1452 1453 1453 1453 1454 1454 1455 1455 1454 1454 1454 1453 1452 1451 1450 1449 1448 1446 1445 1443 1441 1439 1438 1435 1433 1431 1429 1428 1426 1425 1423 1422
1445 1445 1445 1445 1445 1445 1446 1447 1447 1448 1448 1449 1450 1451 1451 1452 1452 1452 1452 1451 1451 1451 1451 1451 1449 1448 1447 1445 1444 1443 1441 1440 1438 1435 1433 1430 1429 1427 1425 1424 1422 1420 1419
1443 1443 1443 1443 1443 1444 1445 1445 1446 1446 1446 1447 1448 1448 1449 1449 1450 1450 1449 1449 1449 1448 1448 1448 1447 1446 1445 1443 1442 1441 1439 1437 1435 1434 1432 1429 1426 1424 1422 1421 1419 1418 1416
1441 1441 1441 1441 1442 1442 1443 1444 1444 1444 1444 1445 1446 1447 1447 1447 1447 1447 1447 1447 1446 1446 1446 1445 1444 1443 1442 1441 1439 1438 1437 1435 1433 1431 1430 1427 1424 1421 1419 1418 1417 1415 1414
1440 1439 1439 1440 1440 1441 1442 1442 1443 1443 1443 1444 1444 1445 1445 1446 1446 1445 1445 1445 1444 1443 1443 1442 1441 1440 1439 1437 1437 1436 1435 1433 1431 1429 1427 1425 1422 1420 1417 1415 1414 1413 1411